When you browse on this site, cookies collect data to enhance your experience and personalize the content and advertising you see.
Visit our Privacy Policy to learn more. By continuing to use the site, you agree to this use of cookies and data.
  • In Hungary
  • List of Countries
  • For 7 days
  • Water Temperature
  • Satellite Maps
  • Weather Map
  • News
  • Weather Widgets
  • user-avatar
    Login

    Hourly Weather Gabrovo

    Today, 15 December, Saturday

    Time Temperature Precipitation Wind Pressure Humidity
    00:00 +2°C° 0 mm 1 mps 702 mmHg 94%
    01:00 +2°C° 0 mm 1 mps 701 mmHg 95%
    02:00 +2°C° 0 mm 1 mps 701 mmHg 95%
    03:00 +2°C° 0 mm 1 mps 701 mmHg 95%
    04:00 +2°C° 0 mm 1 mps 701 mmHg 95%
    05:00 +2°C° 0 mm 1 mps 701 mmHg 95%
    06:00 +2°C° 0 mm 1 mps 701 mmHg 95%
    07:00 +2°C° 0 mm 1 mps 701 mmHg 95%
    08:00 +2°C° 0 mm 1 mps 701 mmHg 95%
    09:00 +4°C° 0 mm 1 mps 701 mmHg 92%
    10:00 +5°C° 0 mm 1 mps 702 mmHg 89%
    11:00 +6°C° 0 mm 1 mps 702 mmHg 86%
    12:00 +7°C° 0 mm 1 mps 702 mmHg 85%
    13:00 +7°C° 0 mm 1 mps 702 mmHg 85%
    14:00 +7°C° 0 mm 2 mps 701 mmHg 84%
    15:00 +6°C° 0.1 mm 2 mps 701 mmHg 87%
    16:00 +7°C° 0.1 mm 1 mps 701 mmHg 91%
    17:00 +6°C° 0.1 mm 1 mps 701 mmHg 95%
    18:00 +5°C° 0.1 mm 2 mps 701 mmHg 95%
    19:00 +6°C° 0.1 mm 2 mps 700 mmHg 95%
    20:00 +6°C° 0.1 mm 2 mps 700 mmHg 95%
    21:00 +6°C° 0.1 mm 2 mps 700 mmHg 95%
    22:00 +6°C° 0.1 mm 2 mps 700 mmHg 95%
    23:00 +6°C° 0.1 mm 2 mps 700 mmHg 95%

    Tomorrow, 16 December, Sunday

    Time Temperature Precipitation Wind Pressure Humidity
    00:00 +6°C° 0.2 mm 2 mps 700 mmHg 95%
    01:00 +6°C° 0.2 mm 2 mps 700 mmHg 95%
    02:00 +6°C° 0.2 mm 2 mps 700 mmHg 95%
    03:00 +6°C° 0.2 mm 2 mps 699 mmHg 95%
    04:00 +6°C° 0.2 mm 2 mps 699 mmHg 95%
    05:00 +6°C° 0.2 mm 2 mps 699 mmHg 95%
    06:00 +6°C° 0.1 mm 2 mps 699 mmHg 95%
    07:00 +5°C° 0.1 mm 2 mps 699 mmHg 95%
    08:00 +5°C° 0.1 mm 2 mps 699 mmHg 95%
    09:00 +6°C° 0.2 mm 2 mps 699 mmHg 92%
    10:00 +6°C° 0.2 mm 2 mps 699 mmHg 90%
    11:00 +7°C° 0.2 mm 3 mps 700 mmHg 88%
    12:00 +7°C° 0.5 mm 3 mps 700 mmHg 86%
    13:00 +7°C° 0.5 mm 3 mps 700 mmHg 84%
    14:00 +7°C° 0.5 mm 3 mps 700 mmHg 83%
    15:00 +5°C° 0.7 mm 3 mps 700 mmHg 85%
    16:00 +5°C° 0.7 mm 3 mps 700 mmHg 87%
    17:00 +4°C° 0.7 mm 3 mps 700 mmHg 89%
    18:00 +3°C° 0.9 mm 3 mps 700 mmHg 88%
    19:00 +3°C° 0.9 mm 3 mps 701 mmHg 88%
    20:00 +2°C° 0.9 mm 3 mps 701 mmHg 87%
    21:00 +2°C° 0.7 mm 3 mps 701 mmHg 86%
    22:00 +1°C° 0.7 mm 3 mps 701 mmHg 85%
    23:00 +2°C° 0.7 mm 2 mps 702 mmHg 84%

    Day after tomorrow, 17 December, Monday

    Time Temperature Precipitation Wind Pressure Humidity
    00:00 +2°C° 0.2 mm 2 mps 702 mmHg 84%
    01:00 +2°C° 0.2 mm 2 mps 702 mmHg 83%
    02:00 +2°C° 0.2 mm 2 mps 702 mmHg 83%
    03:00 +2°C° 0.1 mm 2 mps 702 mmHg 83%
    04:00 +3°C° 0.1 mm 1 mps 702 mmHg 83%
    05:00 +3°C° 0.1 mm 1 mps 702 mmHg 83%
    06:00 +3°C° 0.1 mm 1 mps 702 mmHg 83%
    07:00 +3°C° 0.1 mm 1 mps 702 mmHg 83%
    08:00 +3°C° 0.1 mm 1 mps 702 mmHg 83%
    09:00 +3°C° 0 mm 1 mps 702 mmHg 82%
    10:00 +4°C° 0 mm 1 mps 702 mmHg 81%
    11:00 +5°C° 0 mm 1 mps 702 mmHg 79%
    12:00 +5°C° 0 mm 1 mps 702 mmHg 81%
    13:00 +5°C° 0 mm 1 mps 702 mmHg 82%
    14:00 +5°C° 0 mm 1 mps 701 mmHg 83%
    15:00 +5°C° 0.1 mm 1 mps 701 mmHg 85%
    16:00 +4°C° 0.1 mm 1 mps 701 mmHg 88%
    17:00 +4°C° 0.1 mm 1 mps 701 mmHg 90%
    18:00 +4°C° 0.7 mm 1 mps 702 mmHg 90%
    19:00 +4°C° 0.7 mm 1 mps 702 mmHg 91%
    20:00 +4°C° 0.7 mm 1 mps 702 mmHg 92%
    21:00 +4°C° 0.9 mm 1 mps 702 mmHg 92%
    22:00 +4°C° 0.9 mm 1 mps 702 mmHg 92%
    23:00 +3°C° 0.9 mm 1 mps 702 mmHg 92%

    18 December, Tuesday

    Time Temperature Precipitation Wind Pressure Humidity
    00:00 +3°C° 0.5 mm 1 mps 702 mmHg 91%
    01:00 +3°C° 0.5 mm 1 mps 702 mmHg 91%
    02:00 +3°C° 0.5 mm 1 mps 702 mmHg 91%
    03:00 +2°C° 0.9 mm 2 mps 702 mmHg 91%
    04:00 +2°C° 0.9 mm 2 mps 702 mmHg 90%
    05:00 +2°C° 0.9 mm 2 mps 701 mmHg 90%
    06:00 +2°C° 0.9 mm 2 mps 702 mmHg 90%
    07:00 +2°C° 0.9 mm 2 mps 702 mmHg 89%
    08:00 +1°C° 0.9 mm 2 mps 702 mmHg 89%
    09:00 +2°C° 0.9 mm 2 mps 703 mmHg 89%
    10:00 +2°C° 0.9 mm 2 mps 703 mmHg 88%
    11:00 +1°C° 0.9 mm 3 mps 703 mmHg 88%
    12:00 +1°C° 0.5 mm 3 mps 703 mmHg 87%
    13:00 +1°C° 0.5 mm 3 mps 703 mmHg 87%
    14:00 +1°C° 0.5 mm 3 mps 703 mmHg 86%
    15:00 0°C° 0.3 mm 3 mps 703 mmHg 86%
    16:00 0°C° 0.3 mm 3 mps 704 mmHg 86%
    17:00 0°C° 0.3 mm 3 mps 704 mmHg 86%
    18:00 0°C° 0.1 mm 3 mps 704 mmHg 86%
    19:00 -1°C° 0.1 mm 3 mps 705 mmHg 86%
    20:00 -1°C° 0.1 mm 3 mps 705 mmHg 86%
    21:00 -1°C° 0.1 mm 3 mps 705 mmHg 86%
    22:00 -1°C° 0.1 mm 2 mps 705 mmHg 86%
    23:00 -1°C° 0.1 mm 2 mps 705 mmHg 86%

    19 December, Wednesday

    Time Temperature Precipitation Wind Pressure Humidity
    00:00 -2°C° 0 mm 2 mps 705 mmHg 86%
    01:00 -2°C° 0 mm 2 mps 705 mmHg 86%
    02:00 -2°C° 0 mm 2 mps 705 mmHg 86%
    03:00 -2°C° 0 mm 2 mps 705 mmHg 86%
    04:00 -3°C° 0 mm 2 mps 704 mmHg 86%
    05:00 -3°C° 0 mm 2 mps 704 mmHg 87%
    06:00 -3°C° 0.1 mm 2 mps 704 mmHg 86%
    07:00 -3°C° 0.1 mm 2 mps 705 mmHg 86%
    08:00 -3°C° 0.1 mm 2 mps 705 mmHg 86%
    09:00 -2°C° 0.1 mm 2 mps 705 mmHg 83%
    10:00 -2°C° 0.1 mm 2 mps 705 mmHg 80%
    11:00 +1°C° 0.1 mm 1 mps 705 mmHg 78%
    12:00 +1°C° 0 mm 1 mps 705 mmHg 77%
    13:00 +2°C° 0 mm 1 mps 705 mmHg 76%
    14:00 +2°C° 0 mm 1 mps 704 mmHg 75%
    15:00 +1°C° 0 mm 1 mps 704 mmHg 78%
    16:00 +1°C° 0 mm 1 mps 705 mmHg 80%
    17:00 0°C° 0 mm 1 mps 705 mmHg 83%
    18:00 0°C° 0 mm 1 mps 705 mmHg 84%
    19:00 -1°C° 0 mm 1 mps 705 mmHg 85%
    20:00 -1°C° 0 mm 1 mps 705 mmHg 86%
    21:00 -1°C° 0 mm 1 mps 706 mmHg 86%
    22:00 -2°C° 0 mm 1 mps 706 mmHg 87%
    23:00 -2°C° 0 mm 1 mps 706 mmHg 87%

    20 December, Thursday

    Time Temperature Precipitation Wind Pressure Humidity
    00:00 -2°C° 0 mm 1 mps 706 mmHg 87%
    01:00 -3°C° 0 mm 1 mps 706 mmHg 88%
    02:00 -3°C° 0 mm 1 mps 706 mmHg 88%
    03:00 -3°C° 0 mm 1 mps 706 mmHg 87%
    04:00 -3°C° 0 mm 1 mps 706 mmHg 86%
    05:00 -3°C° 0 mm 1 mps 706 mmHg 86%
    06:00 -3°C° 0 mm 1 mps 707 mmHg 85%
    07:00 -3°C° 0 mm 1 mps 707 mmHg 85%
    08:00 -4°C° 0 mm 1 mps 707 mmHg 84%
    09:00 -2°C° 0 mm 1 mps 708 mmHg 80%
    10:00 -1°C° 0 mm 1 mps 708 mmHg 76%
    11:00 0°C° 0 mm 1 mps 708 mmHg 72%
    12:00 +1°C° 0 mm 1 mps 708 mmHg 71%
    13:00 +1°C° 0 mm 1 mps 708 mmHg 70%
    14:00 +2°C° 0 mm 1 mps 708 mmHg 70%
    15:00 +1°C° 0 mm 1 mps 708 mmHg 74%
    16:00 0°C° 0 mm 1 mps 708 mmHg 78%
    17:00 -1°C° 0 mm 1 mps 708 mmHg 83%
    18:00 -2°C° 0 mm 1 mps 708 mmHg 83%
    19:00 -2°C° 0 mm 1 mps 708 mmHg 84%
    20:00 -2°C° 0 mm 1 mps 709 mmHg 85%
    21:00 -3°C° 0 mm 1 mps 709 mmHg 85%
    22:00 -3°C° 0 mm 1 mps 709 mmHg 85%
    23:00 -3°C° 0 mm 1 mps 709 mmHg 85%
    Show more